923  
AXUS43 KLBF 280710  
MISLBF  
 
WESTERN AND NORTH CENTRAL NEBRASKA HOURLY WEATHER ROUNDUP  
NATIONAL WEATHER SERVICE NORTH PLATTE NE  
100 AM CST SUN FEB 28 2021  
 
NOTE: "FAIR" INDICATES FEW OR NO CLOUDS BELOW 12,000 FEET WITH NO  
SIGNIFICANT WEATHER AND/OR OBSTRUCTIONS TO VISIBILITY.  
 
NOTE: STATIONS NOT REPORTING SKY/WEATHER AND PRESSURE ARE  
PROVIDED BY RAWS AND APRS NETWORKS AND ARE NOT UNDER NATIONAL  
WEATHER SERVICE QUALITY CONTROL.  
   
..OBSERVATIONS IN AND NEAR THE EASTERN PANHANDLE OF NEBRASKA
 
 
 
CITY SKY/WX TMP DP RH WIND PRES REMARKS  
PINE RIDGE LGT SNOW 23 18 81 NW9G20 29.94R WCI 13  
GORDON CLOUDY 22 20 91 NW16G23 29.90R WCI 8  
CHADRON LGT SNOW 24 19 81 N10 29.97R WCI 14  
ALLIANCE FLURRIES 25 22 88 N17G28 29.90R WCI 12  
SIDNEY PTCLDY 25 16 68 NW14 29.89R WCI 13  
CRESCENT LAKE N/A 26 24 94 NW6G17 N/A WCI 19  

 
   
..OBSERVATIONS IN NORTHERN NEBRASKA AND FAR SOUTHERN SOUTH DAKOTA
 
 
 
CITY SKY/WX TMP DP RH WIND PRES REMARKS  
WINNER LGT SNOW 29 25 85 N12 29.88R FOG WCI 19  
VALENTINE LGT SNOW 33 31 92 CALM 29.85S FOG  
AINSWORTH CLOUDY 31 31 97 NW3 29.85S  
O'NEILL CLOUDY 32 32 99 N8 29.83R FOG  
THEDFORD CLEAR 26 24 93 W7 29.87R WCI 19  
BROKEN BOW CLOUDY 32 29 88 W6 29.83F  
ORD CLOUDY 34 31 88 NW8 29.82R  
ALBION CLOUDY 34 32 94 NW13 29.79R  
EWING N/A 33 31 94 N8 N/A  
CHAMBERS N/A 32 31 97 CALM N/A  
BUTTE N/A 31 30 95 N13G20 N/A  
VALENTINE NWR N/A 27 27 100 W3 N/A  
HALSEY N/A 26 25 97 CALM N/A  

 
   
..OBSERVATIONS IN SOUTHWEST NEBRASKA AND FAR NORTHEAST COLORADO
 
 
 
CITY SKY/WX TMP DP RH WIND PRES REMARKS  
WRAY FAIR 32 12 43 NW12 29.92S  
HOLYOKE PTCLDY 34 18 51 NW13G20 29.90S  
IMPERIAL MOCLDY 30 17 58 W10 29.90R  
OGALLALA CLEAR 25 20 80 W7 29.89S WCI 17  
NORTH PLATTE CLEAR 25 22 88 NW6 29.87R WCI 18  
MCCOOK CLEAR 30 25 81 NW12 29.88F  
LEXINGTON CLEAR 30 27 89 W10 29.85S  
CALLAWAY N/A 30 26 85 NW7 N/A  
STAPLETON N/A 25 22 89 CALM N/A  

 
   
..OBSERVATIONS IN CENTRAL LINCOLN COUNTY AREA
 
 
 
CITY SKY/WX TMP DP RH WIND PRES REMARKS  
N.P. AIRPORT CLEAR 25 22 88 NW6 29.87R WCI 18  
N.P. HILLCREST N/A 27 26 94 W5 N/A  
N.P. SOUTHEAST N/A 29 26 89 CALM N/A  

 
   
..OBSERVATIONS ACROSS THE ROCKIES AND WESTERN HIGH PLAINS
 
 
 
CITY SKY/WX TMP DP RH WIND PRES REMARKS  
SCOTTSBLUFF CLOUDY 28 20 71 NW23G31 29.93R WCI 14  
KIMBALL CLEAR 24 16 70 NW23G29 29.90R WCI 9  
CHEYENNE CLEAR 20 10 65 NW18G29 29.89S WCI 5  
DENVER PTCLDY 22 5 48 W7 29.93R WCI 13  
STEAMBOAT CLOUDY 9 6 89 CALM 29.96S  
COPPER MTN MOCLDY 1 -6 71 W13 N/A WCI -16  
LEADVILLE MOCLDY -4 -10 75 E7 29.83S WCI -18  
ASPEN CLOUDY 8 1 73 SW7 29.92R WCI -3  
GUNNISON MOCLDY 7 -4 60 NE6 29.93S WCI -3  
TELLURIDE MOCLDY 10 -6 48 SE5 29.89S WCI 2  
LARAMIE LGT SNOW 15 12 88 NW12 29.89S FOG WCI 2  
CASPER LGT SNOW 19 15 84 NW5 29.99R FOG WCI 12  
SHERIDAN CLEAR 10 6 84 S3 30.01S  
JACKSON FLURRIES 6 2 83 NE7 30.02S WCI -6  
YELLOWSTONE N/A -11 -16 78 CALM 29.96S  

 
   
..OBSERVATIONS ACROSS THE NORTHERN PLAINS
 
 
 
CITY SKY/WX TMP DP RH WIND PRES REMARKS  
RAPID CITY CLOUDY 20 17 88 N16 29.97R FOG WCI 6  
PIERRE LGT SNOW 22 18 85 N21G26 29.95S VSB 1 WCI 6  
SIOUX FALLS CLOUDY 34 31 88 NE20G25 29.78S  
ABERDEEN CLOUDY 18 11 74 N15 30.02F WCI 4  
WILLISTON FAIR 7 5 92 CALM 30.06S  
DICKINSON PTCLDY 7 4 87 W8 29.98F WCI -6  
BISMARCK MOCLDY 19 7 59 NW5 30.08S WCI 12  
FARGO CLOUDY 8 2 76 N15 30.09S WCI -9  
GRAND FORKS PTCLDY 0 -7 72 NW5 30.14R WCI -10  

 
   
..OBSERVATIONS ACROSS THE CENTRAL AND SOUTHERN PLAINS
 
 
 
CITY SKY/WX TMP DP RH WIND PRES REMARKS  
GRAND ISLAND CLEAR 33 29 85 NW13 29.82R  
LINCOLN CLEAR 39 35 86 W3 29.77R  
OMAHA MOCLDY 40 36 86 W3 29.71R  
DES MOINES MOCLDY 40 34 79 SE7 29.73F  
KANSAS CITY CLOUDY 52 45 77 S14 29.74F  
WICHITA CLOUDY 53 52 96 W9 29.76R FOG  
DODGE CITY CLEAR 36 21 54 N16 29.85R  
OKLAHOMA CITY FOG 58 58 100 S14 29.74F VSB 1/4  
DALLAS CLOUDY 70 64 81 S9 29.81F  
AMARILLO MOCLDY 40 18 41 N24G37 29.85R  

 
 
 
CLICK HERE TO GO TO PREVIOUS BULLETINS.

The Nexlab NE Page Main Text Page